Preview of NWS' New Version of Forecast
This preview is not operational and should not be used for support decisions.

Regional Weather Roundup (RWR)

Issued by National Weather Service (NWS)

                            
000
ASCA42 TJSJ 170910
RWRPR 
PUERTO RICO/U.S. VIRGIN ISLANDS HOURLY WEATHER ROUNDUP
NATIONAL WEATHER SERVICE SAN JUAN PR
500 AM AST WED APR 17 2019

PRZ001>002-007>008-010-171000-
PUERTO RICO
  
CITY           SKY/WX    TMP DP  RH WIND       PRES   REMARKS
SAN JUAN LMM   PTCLDY    75  70  83 SE3       29.98S                  
CEIBA          PTCLDY    79  66  65 E9        30.00S                  
$$

VIZ001>002-171000-
U.S. VIRGIN ISLANDS
  
CITY           SKY/WX    TMP DP  RH WIND       PRES   REMARKS
CHARLOTTE AMA  PTCLDY    75  70  83 VRB3      29.98S                  
CHRISTIANSTED  PTCLDY    73  66  78 NE7       29.98R                  
$$

HOURLY WEATHER ROUNDUP FOR THE NEWS MEDIA
  
CITY           SKY/WX    TMP DP  RH WIND       PRES   REMARKS
ORLANDO        FAIR      67  59  75 N3        30.10F                  
NEW YORK       CLOUDY    48  37  65 NE12      30.08S                  
NEWARK         CLOUDY    49  36  61 N12       30.08R                  
CHICAGO        CLOUDY    46  43  89 NE8       29.94F                  
HARTFORD       FAIR      42  29  59 CALM      30.07R                  
BOSTON         FAIR      45  27  49 W10       30.07R                  
DALLAS         CLOUDY    69  62  78 S16G23    29.84S                  
PHILADELPHIA   MOCLDY    53  40  61 NE8       30.06S                  
LOS ANGELES    PTCLDY    56  50  80 W6        30.10S                  
WASHINGTON DC  CLOUDY    56  38  50 S3        30.00R